EDT,Max TemperatureF,Mean TemperatureF,Min TemperatureF,Max Dew PointF,MeanDew PointF,Min DewpointF,Max Humidity, Mean Humidity, Min Humidity, Max Sea Level PressureIn, Mean Sea Level PressureIn, Min Sea Level PressureIn, Max VisibilityMiles, Mean VisibilityMiles, Min VisibilityMiles, Max Wind SpeedMPH, Mean Wind SpeedMPH, Max Gust SpeedMPH,PrecipitationIn, CloudCover, Events, WindDirDegrees
2014-3-1,10,2,-5,3,-11,-36,85,53,17,,,,20,16,15,70,44,76,0.00,5,,259
2014-3-2,6,-2,-13,5,-3,-13,100,99,85,,,,20,2,0,79,58,86,0.04,8,Fog-Snow,288
2014-3-3,-5,-12,-18,-6,-19,-27,100,77,49,,,,4,0,0,60,49,66,0.00,2,Fog,305
2014-3-4,-4,-8,-11,-6,-17,-65,100,71,4,,,,20,2,0,51,42,53,0.00,3,Fog-Snow,290
2014-3-5,0,-6,-13,0,-10,-27,100,88,41,,,,15,1,0,40,25,44,0.14,3,Fog-Snow,295
2014-3-6,8,-2,-9,-2,-17,-36,67,43,22,,,,,,,39,22,44,0.00,0,,304
2014-3-7,21,16,10,19,-8,-26,93,39,17,,,,,,,45,25,53,0.00,3,Fog,239
2014-3-8,21,11,1,21,9,-13,100,84,37,,,,20,2,0,61,39,56,0.02,6,Fog-Snow,301
2014-3-9,8,2,-4,1,-4,-9,100,87,44,,,,1,0,0,53,34,60,0.07,4,Fog-Snow,300
2014-3-10,14,6,-2,14,6,-2,100,100,100,,,,0,0,0,41,35,47,0.14,,Fog-Snow,283
2014-3-11,19,16,14,19,17,14,100,100,100,,,,0,0,0,75,53,85,0.14,,Fog-Snow,280
2014-3-12,26,19,15,27,19,16,100,100,100,,,,0,0,0,46,31,48,1.39,,Fog-Snow,207
2014-3-13,26,5,-16,27,-6,-18,100,99,84,,,,0,0,0,72,28,81,0.06,3,Fog-Snow,306
2014-3-14,21,4,-14,18,0,-26,100,83,58,,,,20,4,0,66,54,76,0.04,2,Fog-Snow,283
2014-3-15,23,16,6,19,17,7,100,96,80,,,,20,4,0,71,54,83,0.44,8,Fog-Snow,267
2014-3-16,6,-6,-20,7,-11,-33,100,98,52,,,,0,0,0,79,63,94,0.06,2,Fog-Snow,293
2014-3-17,0,-10,-18,-13,-21,-27,71,55,32,,,,,,,68,54,67,0.00,3,,313
2014-3-18,14,6,-2,0,-14,-26,72,41,20,,,,,,,47,37,56,0.00,1,,306
2014-3-19,23,16,10,16,2,-13,100,59,27,,,,7,1,0,50,25,48,0.60,5,Fog-Snow,226
2014-3-20,24,17,8,25,18,9,100,100,100,,,,0,0,0,79,52,88,0.54,,Fog-Snow,244
2014-3-21,8,6,5,9,7,5,100,100,100,,,,0,0,0,82,73,97,0.14,,Fog-Snow,292
2014-3-22,17,11,5,18,7,-8,100,87,35,,,,20,2,0,83,47,89,0.50,6,Fog-Snow,264
2014-3-23,8,-3,-14,9,-1,-15,100,98,77,,,,0,0,0,60,48,69,0.19,3,Fog-Snow,292
2014-3-24,-7,-12,-17,-9,-14,-17,100,90,71,,,,0,0,0,64,54,70,0.00,3,Fog-Snow,305
2014-3-25,1,-3,-7,-2,-8,-17,100,78,65,,,,20,10,4,30,21,46,0.00,4,,258
2014-3-26,3,-2,-9,0,-5,-9,100,86,56,,,,20,3,0,86,36,97,0.20,8,Fog-Snow,352
2014-3-27,15,0,-14,16,-8,-22,100,72,35,,,,20,3,0,85,70,93,0.05,5,Fog-Snow,296
2014-3-28,30,22,15,30,25,16,100,100,100,,,,0,0,0,72,52,79,0.38,,Fog-Rain-Snow,260
2014-3-29,33,27,21,28,23,5,100,88,37,,,,4,0,0,64,32,75,0.06,5,Fog-Snow,190
2014-3-30,37,27,17,37,30,18,100,100,100,,,,0,0,0,52,31,58,0.55,8,Fog-Rain-Snow,92
2014-3-31,37,24,12,37,21,12,100,98,86,,,,0,0,0,51,32,62,0.00,7,Fog,19